Location: Arcueil
(48.7999°N, 2.3326°E)
Time: 05:51:30
(UTC+00:00)

Cosmos 2278 - Visible Passes

Search period start: 30 September 2023 00:00
Search period end: 10 October 2023 00:00
Orbit: 838 x 853 km, 71.1° (Epoch: 29 September)

Date Brightness Start Highest point End Pass type
(mag) Time Alt. Az. Time Alt. Az. Time Alt. Az.
30 Sep 6.2 00:48:35 10° NNW 00:49:42 16° NNW 00:49:42 16° NNW visible
30 Sep 6.4 19:17:39 10° NW 19:19:58 12° NNW 19:22:18 10° N visible
30 Sep 6.4 22:51:56 10° N 22:53:45 12° NNE 22:53:45 12° NNE visible
01 Oct 6.3 00:34:44 10° NNW 00:35:36 14° NNW 00:35:36 14° NNW visible
01 Oct 6.4 19:03:40 10° NW 19:06:04 13° NNW 19:08:29 10° N visible
01 Oct 6.4 22:38:07 10° N 22:39:43 12° NNE 22:39:43 12° NNE visible
02 Oct 6.4 00:20:53 10° NNW 00:21:34 13° NNW 00:21:34 13° NNW visible
02 Oct 6.3 18:49:41 10° NW 18:52:10 13° NNW 18:54:40 10° N visible
02 Oct 6.4 22:24:19 10° N 22:25:45 12° NNE 22:25:45 12° NNE visible
03 Oct 6.4 00:07:01 10° NNW 00:07:36 13° NNW 00:07:36 13° NNW visible
03 Oct 6.3 18:35:41 10° WNW 18:38:16 13° NNW 18:40:51 10° N visible
03 Oct 6.4 22:10:30 10° N 22:11:50 12° NNE 22:11:50 12° NNE visible
03 Oct 6.5 23:53:10 10° NNW 23:53:41 12° NNW 23:53:41 12° NNW visible
04 Oct 6.3 18:21:42 10° WNW 18:24:22 13° NNW 18:27:02 10° N visible
04 Oct 6.3 21:56:41 10° N 21:57:56 11° NNE 21:57:56 11° NNE visible
04 Oct 6.5 23:39:18 10° NNW 23:39:48 12° NNW 23:39:48 12° NNW visible
05 Oct 6.2 18:07:43 10° WNW 18:10:27 13° NNW 18:13:12 10° N visible
05 Oct 6.3 21:42:53 10° N 21:44:04 11° NNE 21:44:04 11° NNE visible
05 Oct 6.5 23:25:27 10° NNW 23:25:56 12° NNW 23:25:56 12° NNW visible
06 Oct 6.2 17:53:44 10° WNW 17:56:33 14° NNW 17:59:23 10° N visible
06 Oct 6.3 21:29:04 10° N 21:30:14 11° NNE 21:30:14 11° NNE visible
06 Oct 6.5 23:11:35 10° NNW 23:12:06 12° NNW 23:12:06 12° NNW visible
07 Oct 6.3 21:15:17 10° N 21:16:26 11° NNE 21:16:26 11° NNE visible
07 Oct 6.5 22:57:44 10° NNW 22:58:18 13° NNW 22:58:18 13° NNW visible
08 Oct 6.2 21:01:29 10° N 21:02:38 11° NNE 21:02:38 11° NNE visible
08 Oct 6.5 22:43:53 10° NNW 22:44:30 13° NNW 22:44:30 13° NNW visible
09 Oct 6.2 20:47:42 10° N 20:48:52 11° NNE 20:48:52 11° NNE visible
09 Oct 6.4 22:30:01 10° NNW 22:30:44 13° NNW 22:30:44 13° NNW visible
